Weather Service Report


551 
ASCA42 TJSJ 241911
RWRPR 
PUERTO RICO/U.S. VIRGIN ISLANDS HOURLY WEATHER ROUNDUP
NATIONAL WEATHER SERVICE SAN JUAN PR
300 PM AST THU APR 24 2014

PRZ001-004-242000-
PUERTO RICO
  
CITY           SKY/WX    TMP DP  RH WIND       PRES   REMARKS
SAN JUAN LMM   PTSUNNY   88  73  62 NE16      29.95F HX  96           
MAYAGUEZ       PTSUNNY   88  72  58 W9        29.97S HX  94           
AGUADILLA      MOSUNNY   84  73  70 N8        29.98F HX  91           
CEIBA          PTSUNNY   84  75  74 SE8       29.99F HX  92           
$$

PRZ006-007-242000-
U.S. VIRGIN ISLANDS
  
CITY           SKY/WX    TMP DP  RH WIND       PRES   REMARKS
CHARLOTTE AMA  MOSUNNY   84  75  74 SE8       29.97F HX  92           
CHRISTIANSTED  MOSUNNY   88  73  62 SE12      29.98F HX  96           
$$

HOURLY WEATHER ROUNDUP FOR THE NEWS MEDIA
  
CITY           SKY/WX    TMP DP  RH WIND       PRES   REMARKS
MIAMI          MOSUNNY   85  66  53 S5        29.97F                  
ORLANDO        SUNNY     86  63  45 SW9       29.97F                  
NEW YORK       MOSUNNY   63  10  12 NW21G37   29.86F                  
NEWARK         MOSUNNY   63  12  13 N28       29.88F                  
CHICAGO        CLOUDY    61  32  33 S23       29.84F                  
HARTFORD       SUNNY     58  23  26 NW21G36   29.66F                  
BOSTON         MOSUNNY   58  22  24 NW24G36   29.68S                  
DALLAS         MOSUNNY   82  54  37 NW16G26   29.82R                  
PHILADELPHIA   SUNNY     60  13  15 W17G29    29.99S                  

Return to Home page


Western Regional Climate Center, wrcc@dri.edu